COSMOS 2084 (20663 NORAD) Tracking and Keplerian Element Data

This shows tracking and keplerian element data for the satellite.

Feedback or suggestion? Click here.




ElementValue
Catalog20663
NameCOSMOS 2084
Epoch Orbit53738
Epoch Day323.19873274
Epoch Year2018
RAAN292.1181
Inclination62.7933
Eccentricity0.0105723
Argument of Perigee142.5702
Mean Anonmoly218.2817
Mean Motion14.91909098
Decay Rate-9E-07
L11 20663U 90055A 18323.19873274 -.00000090 00000-0 10402-4 0 9995
L22 20663 62.7933 292.1181 0105723 142.5702 218.2817 14.91909098537387

Live tracking and technical data element details for COSMOS 2084 (NORAD 20663). COSMOS 2084 can be tracked NOW for your location showing map with azimuth and elevation plus other details from your city location.

Track the satellite on the map from your city or location and see movement details for azimuth, elevation, latitude, longitude, range, height, and movement on the map or in text.







IsCatalogInMostPopularTable: catalog: 20663, numindb: 51
Update: records affected: 1



GetName: 20663 COSMOS 2084

Hit Count: updated at: Wed, 21 Nov 2018 06:18:06 GMT